SL-16 DEB, 22613

Orbit data source: Space-Track

SL-16 DEB, 22613 is space debris in LEO originally from a launch on Fri, 26 Mar 1993 UTC launched from the Tyuratam Missile And Space Complex (TTMTR). Debris objects in space refer to the collection of defunct objects orbiting the Earth. Examples of debris include non-operational satellites, rocket bodies, and fragments generated from explosions, collisions, or faulty payload assembly.

Loading next visibility...
Identifier
22613, 1993-016X
Orbit
LEO
Country
Flag of CISCIS
Related business
Manufacturer
Unknown
Mission
Spacecraft
Bus & Motor
Unknown
Mass
Unknown
Launch date (UTC)
1993-03-26 (33 years ago)
Launch vehicle
Unknown
Launch site
Tyuratam Missile And Space Complex (TTMTR)
Object type
Payload
Rocket body
Debris
Shape & HBR
Unknown shape, 0.1 m
Radar Cross Section
Medium (>0.1 m² and <1 m²)

Expand to show TLE details & history
Last TLE update: 3 days ago

TLE from 3 days ago
0 SL-16 DEB
1 22613U 93016X   26170.69614595  .00000308  00000-0  30658-3 0  9990
2 22613  71.0004 257.6541 0192426 162.0680 318.8496 13.77610396665318
Epoch: 2026-06-19T16:42Z
TLE epoch observation values (Epoch: 2026-06-19T16:42:27.010Z)
Latitude
55.54102°
Longitude
-110.82091°
Altitude
875.739 km
Speed
7.473 km/s
True Right ascension
03h 10m 51s
True Declination
55° 22' 59"
Sunlit
Object was in daylight at epoch
Visualization orbit readout
Latitude
Unknown
Longitude
Unknown
Altitude
Unknown
Speed
Unknown
Apparent Right ascension
Unknown
Apparent Declination
Unknown
Sunlit
N/A
Visualization observer readout
Local Sidereal Time
08:39:50
Azimuth
Unknown
Elevation
Unknown
Doppler factor
Unknown
Orbital elements
Apogee altitude
1,111.739 km
Perigee altitude
828.931 km
Semi-major axis
7,348.472 km
Eccentricity
0.01924
Inclination
71.0004°
RAAN
257.6541°
Arg. of periapsis
162.068°
True anomaly
317.37202°
Mean anomaly
318.8496°
Eccentric anomaly
318.11349°
Mean motion
3.44546 °/min
Orbital period
104.49 mins
BSTAR
0.00030658
Loading maneuver chart data...
Computing Atmospheric mass density...
Loading historical data...
Loading historical data...
Loading historical data...
Loading historical data...
Loading historical data...
Loading historical data...
Loading historical data...

Documentation

Showing up to 5 results
|